Temperature
11 11 11 11 11 11 11 12 12 12 12 11 11 11 12 12 12 12 12 12 12 12 12 12 12 12 12 12 12 11 11 11 11 11 11 11 11 11 11 11 11 11 11
10 10 10 11 11 11 11 11 11 11 11 11 11 11 11 11 11 11 11 11 12 12 12 12 12 12 12 11 11 11 11 11 11 11 11 11 10 10 10 10 10 10 10
10 10 10 10 10 10 10 11 11 11 11 11 11 11 11 11 11 11 11 11 11 11 11 11 11 11 11 11 11 11 11 11 11 11 11 10 10 10 10 10 10 10 10
9 9 9 10 10 10 10 10 10 10 10 10 10 10 10 11 11 11 11 11 11 11 11 11 11 11 11 11 11 11 11 11 11 10 10 10 10 10 10 10 10 10 10
9 9 9 9 9 9 9 9 9 9 10 10 10 10 10 10 10 10 10 10 11 11 11 11 11 11 10 10 10 10 10 10 10 10 10 10 10 10 10 10 10 10 9
8 8 8 8 8 9 9 9 9 9 9 9 9 9 10 10 10 10 10 10 10 10 10 10 10 10 10 10 10 10 10 10 10 10 10 10 10 10 10 9 9 9 9
8 8 8 8 8 8 8 8 8 8 8 8 9 9 9 9 9 10 10 10 10 10 10 10 10 10 10 10 10 10 10 10 10 10 10 10 10 10 10 9 9 9 9
7 7 7 8 8 8 8 8 8 8 8 8 8 8 8 8 9 9 9 9 9 9 9 9 9 9 9 9 10 10 10 9 9 9 9 9 9 10 10 9 9 9 9
6 7 7 7 7 7 7 7 7 8 7 8 8 7 7 8 8 8 9 9 9 9 9 9 9 9 9 9 9 9 9 9 9 9 9 9 9 9 9 9 9 9 9
6 6 6 6 7 7 7 7 7 7 7 7 7 7 7 8 7 7 8 8 8 9 9 9 9 9 9 9 9 9 9 9 9 9 9 9 9 9 9 9 9 9 9
5 5 5 6 6 6 6 6 6 6 6 7 7 7 7 7 7 7 7 7 8 8 8 8 8 8 8 9 9 9 9 9 9 9 9 9 9 9 9 9 8 8 8
4 5 5 5 5 5 6 6 6 6 6 6 6 6 7 7 7 7 7 7 7 8 8 8 8 8 8 8 8 8 8 8 8 8 9 9 9 8 8 8 8 8 8
3 4 4 4 5 5 5 5 5 5 5 6 6 6 6 6 7 7 7 7 7 7 7 7 7 8 8 8 8 8 8 8 8 8 8 8 8 8 8 8 8 8 8
2 3 3 3 4 4 4 5 5 5 5 5 5 5 5 6 6 6 7 7 6 6 7 7 7 7 8 8 8 8 8 8 8 8 8 8 8 8 7 7 7 7 7
2 2 2 3 3 4 4 4 4 4 5 5 5 5 5 5 6 6 6 6 6 6 6 6 7 7 7 7 7 7 7 7 7 7 7 7 7 7 7 7 7 7 7
1 1 2 2 3 3 3 4 4 4 4 4 4 5 5 5 5 5 6 6 6 6 6 6 6 7 7 7 7 7 7 7 7 7 7 7 7 7 7 7 7 7 7
1 1 1 2 2 2 3 3 3 3 3 4 4 4 4 4 4 5 5 5 5 5 5 6 6 6 6 6 6 6 6 6 6 6 6 6 6 6 6 6 6 6 6
0 0 0 1 1 2 2 2 2 3 3 3 3 3 4 4 4 4 5 5 5 5 5 5 5 5 6 6 6 6 6 6 6 6 6 6 6 6 6 6 6 6 6
-1 -0 -0 0 0 1 1 1 2 2 2 2 3 3 3 3 3 4 4 4 4 4 4 4 5 5 5 5 5 5 5 5 5 5 5 5 5 5 5 5 5 5 5
-1 -1 -1 -1 -0 -0 0 0 1 1 1 2 2 2 2 3 3 3 3 4 4 4 4 4 4 4 4 4 4 4 4 5 5 5 5 5 5 5 5 5 5 5 5
-2 -2 -2 -1 -1 -1 -1 -0 -0 0 1 1 1 2 2 2 2 2 3 3 3 3 3 3 3 3 4 4 4 4 4 4 4 4 4 4 4 4 4 4 4 4 4
-2 -2 -2 -2 -2 -1 -1 -1 -1 -0 -0 0 1 1 1 1 1 2 2 2 2 2 2 3 3 3 3 3 3 3 3 3 3 4 4 4 4 4 4 4 4 4 4
-3 -3 -3 -2 -2 -2 -2 -2 -2 -1 -1 -0 -0 0 0 1 1 1 1 1 1 2 2 2 2 2 3 3 3 3 3 3 3 3 3 3 3 3 3 3 3 3 3
-4 -3 -3 -3 -3 -3 -2 -2 -2 -2 -1 -1 -1 -0 -0 -0 0 0 1 1 1 1 1 1 1 2 2 2 2 2 2 2 2 2 2 2 3 3 3 3 3 3 3
-4 -4 -4 -4 -3 -3 -3 -3 -3 -2 -2 -2 -1 -1 -1 -1 -1 -1 -0 0 0 0 1 1 1 1 1 1 1 1 1 1 1 1 1 1 2 2 2 2 2 2 2
-5 -5 -4 -4 -4 -4 -4 -4 -3 -3 -3 -2 -2 -2 -2 -2 -1 -1 -1 -1 -1 -0 0 0 0 0 0 1 1 1 1 1 1 0 1 1 1 1 1 1 1 1 1
Wind_Speed
2 2 2 3 4 4 4 3 3 3 3 4 5 5 4 4 5 6 5 6 6 6 7 7 7 7 7 7 7 7 7 7 7 8 8 8 8 7 7 7 7 7 7
2 2 2 2 3 4 4 4 3 2 2 3 3 4 4 5 5 5 5 5 6 6 6 6 6 6 6 6 6 6 6 7 7 7 7 7 7 7 6 6 6 6 6
3 2 2 2 2 4 4 3 3 3 2 1 1 3 4 4 5 4 5 5 6 6 6 5 5 6 6 6 6 5 6 6 7 7 6 6 6 6 6 5 6 6 6
3 2 2 2 3 4 3 2 2 1 1 1 1 1 2 3 4 4 5 6 6 6 6 5 5 5 5 6 6 6 6 6 6 6 6 6 6 6 5 5 5 5 5
3 2 2 3 4 3 2 3 2 2 2 1 1 1 1 2 3 4 4 5 6 6 6 5 5 5 5 6 6 6 6 6 6 6 6 6 6 6 5 5 5 5 4
2 2 2 3 4 2 2 2 2 2 2 2 1 0 1 1 2 3 4 5 6 6 6 6 5 5 5 6 6 6 6 6 6 6 6 7 6 6 6 6 5 5 4
2 2 2 3 4 4 4 4 2 3 2 1 1 1 2 1 1 2 2 3 4 5 6 6 6 5 5 6 7 7 7 7 6 6 7 7 7 7 7 7 7 6 6
2 2 2 2 3 3 4 4 3 3 2 3 2 2 0 1 1 2 2 3 3 3 4 5 6 6 5 5 6 7 7 8 7 7 7 7 7 8 8 8 8 8 7
3 3 3 3 3 4 5 5 5 5 4 3 3 3 3 3 1 2 2 3 3 2 3 4 5 6 6 6 6 7 8 7 8 7 8 8 8 8 8 8 9 9 8
4 3 3 3 3 3 4 5 4 3 5 5 3 2 2 2 2 1 2 2 3 4 3 3 5 6 6 6 6 6 7 8 8 7 8 8 7 7 8 8 8 8 8
4 3 3 3 3 3 3 4 4 4 4 5 4 2 1 1 2 2 3 3 2 3 4 4 4 5 7 7 6 6 7 8 8 7 8 8 7 7 6 6 7 7 7
4 3 3 3 4 4 4 4 5 5 5 5 4 3 3 3 2 3 3 3 3 3 3 3 4 5 7 7 7 7 8 8 9 9 9 9 8 8 7 7 7 7 7
4 3 4 4 4 4 5 5 5 6 6 6 5 4 4 3 2 2 3 2 3 2 2 2 4 6 7 7 7 8 9 9 9 9 10 9 8 7 7 7 7 7 7
4 4 4 4 4 4 4 4 4 5 6 6 6 5 3 3 3 3 3 3 2 2 3 4 2 5 6 7 8 9 8 9 10 10 10 9 8 8 8 8 8 7 7
4 4 4 4 4 4 4 4 4 5 5 6 6 6 5 4 4 3 3 4 4 4 5 4 3 3 5 6 7 7 7 8 9 10 10 9 8 9 8 8 9 8 8
5 4 4 3 3 3 3 3 3 4 4 5 5 6 6 4 4 3 4 4 3 4 5 4 3 2 4 4 6 6 7 8 9 9 9 9 9 9 9 9 9 9 9
5 4 4 4 4 3 3 3 3 4 4 4 4 5 6 4 4 4 4 4 3 3 4 3 2 2 3 4 4 5 6 6 7 9 9 9 9 9 9 10 10 10 10
5 4 4 4 4 4 3 3 4 4 5 5 4 4 4 4 4 4 4 5 5 4 4 5 3 2 3 4 4 4 4 6 6 9 9 9 9 9 9 10 10 10 10
4 4 4 4 4 4 4 4 4 5 5 5 5 5 4 4 4 3 3 4 4 4 3 4 4 3 2 2 2 2 3 3 5 7 8 9 10 10 9 10 10 10 10
4 4 4 4 5 5 4 4 5 5 5 5 5 5 5 5 5 5 5 4 4 4 3 3 3 3 2 2 3 3 3 3 3 4 6 7 8 9 9 9 10 10 10
4 4 4 4 4 4 4 4 5 5 5 5 4 4 4 5 6 5 5 5 4 4 4 4 3 3 3 3 4 3 4 3 3 3 3 4 5 5 7 9 10 11 11
4 4 4 4 4 4 6 6 5 4 4 5 5 4 4 4 5 7 8 7 6 6 6 5 4 5 6 4 4 4 3 3 4 3 3 4 4 4 6 8 10 11 11
4 4 4 4 4 5 7 7 7 4 4 4 4 4 4 4 4 4 5 6 6 7 7 6 6 6 6 6 5 5 5 5 5 3 4 5 4 5 5 9 10 11 12
4 4 5 5 5 5 7 7 7 4 4 4 4 4 4 4 5 5 4 4 5 5 6 4 5 6 6 6 7 7 6 4 2 2 3 4 4 4 4 7 10 11 11
4 4 4 4 5 5 7 7 6 3 3 4 4 4 4 5 7 7 4 5 5 4 5 6 7 7 7 7 5 3 3 4 3 3 3 3 2 2 3 4 8 10 11
5 5 5 4 4 5 7 7 6 3 4 4 4 4 6 6 7 7 5 4 5 5 4 4 4 5 4 5 6 6 5 5 3 3 3 3 2 1 2 2 3 6 8
Wind_Direction
129 141 142 150 144 141 132 122 119 103 114 125 126 121 122 126 127 131 133 136 136 137 136 139 135 135 133 131 131 131 133 133 131 131 129 125 121 117 113 107 105 107 106
164 159 162 160 155 152 153 151 141 121 119 122 124 130 136 143 137 138 141 148 147 145 140 140 139 141 145 144 143 144 142 142 138 138 135 131 126 123 120 115 114 112 108
189 178 187 188 178 169 160 150 139 118 120 113 136 142 144 151 150 149 151 149 153 153 152 151 150 148 150 152 153 152 149 148 149 146 145 144 140 135 132 127 122 115 112
202 184 199 204 187 173 158 153 161 149 163 150 168 188 157 159 166 166 162 159 158 163 164 163 162 166 172 172 169 165 158 154 158 160 160 161 156 153 151 147 137 130 124
210 194 208 204 186 173 169 180 181 174 177 175 181 196 172 172 179 174 171 172 169 168 168 172 175 179 184 179 173 170 167 169 170 175 178 177 176 175 175 166 156 151 146
233 213 207 201 189 185 192 190 181 180 179 174 168 62 267 210 185 179 184 175 177 176 176 178 181 192 198 190 186 185 185 186 187 190 193 192 193 191 188 184 179 173 170
256 230 223 212 206 200 199 189 179 176 176 150 99 37 342 279 202 199 183 169 175 181 182 185 187 194 204 204 203 202 200 201 205 205 204 203 205 202 199 197 196 195 190
275 246 227 220 219 207 197 196 176 175 187 173 153 143 133 295 286 243 209 193 186 177 184 193 193 198 205 206 213 213 215 213 213 212 213 211 210 208 205 202 200 201 200
281 269 251 236 225 210 200 202 194 181 189 205 188 168 170 212 246 265 243 213 197 195 208 203 200 205 207 208 213 216 219 218 217 219 221 221 219 215 213 207 206 203 198
296 284 272 252 237 228 208 203 200 199 184 199 213 215 203 178 178 222 260 246 221 213 215 220 215 212 209 205 211 217 215 216 218 226 232 230 228 220 214 208 206 204 196
309 300 282 263 249 240 222 216 211 208 199 200 204 214 225 216 193 193 230 242 249 231 219 219 215 213 212 209 212 218 219 219 221 229 237 236 231 221 211 210 209 203 198
298 303 300 281 260 249 233 231 219 217 214 211 212 211 208 196 199 195 216 227 239 250 236 215 209 215 218 214 217 228 230 230 231 234 240 241 236 225 215 214 216 213 208
297 289 294 279 272 266 249 239 224 221 216 211 213 221 226 220 208 202 196 218 239 252 248 231 215 212 217 215 219 227 230 233 237 238 241 240 236 225 219 220 218 216 215
291 291 281 278 279 278 272 249 234 227 217 212 217 217 231 234 219 216 198 194 218 239 242 240 227 214 212 213 222 225 228 236 242 242 240 240 235 223 220 217 215 211 214
299 294 286 280 282 278 271 257 243 236 221 214 215 217 224 235 228 221 202 192 193 220 235 235 221 217 209 209 219 219 223 232 239 241 238 235 232 222 220 219 218 214 217
297 289 286 282 277 276 270 258 258 250 231 223 220 217 225 231 231 225 205 201 203 211 233 224 227 228 208 221 225 221 224 230 232 233 233 229 229 226 218 216 216 216 218
292 281 278 273 270 271 269 259 257 257 246 236 226 218 227 231 228 228 209 200 206 209 234 254 251 242 215 215 224 223 225 224 229 229 228 225 225 226 220 214 213 216 220
293 282 278 267 267 272 270 258 257 255 252 242 233 223 231 237 232 237 220 210 212 212 220 240 251 239 238 218 214 218 227 230 230 232 227 224 225 226 222 216 214 216 220
287 293 285 275 268 268 265 260 250 247 249 244 233 226 228 231 232 244 235 225 220 222 219 226 239 244 246 229 211 230 235 239 235 229 226 228 227 226 224 222 223 222 224
278 279 283 276 273 271 270 268 259 251 253 247 240 233 226 228 232 238 234 230 225 217 213 215 229 235 234 225 199 216 233 236 245 234 230 232 230 228 229 229 230 227 226
295 286 284 282 280 270 268 267 258 247 249 249 246 245 238 241 243 240 238 228 222 222 218 218 226 233 233 218 215 210 230 238 247 232 222 228 224 225 228 232 233 231 228
301 293 285 282 282 280 284 281 275 253 252 249 247 252 254 257 266 265 256 243 233 224 221 219 225 227 230 231 223 216 216 230 244 218 215 237 221 230 231 229 234 235 231
297 292 286 281 279 284 291 284 280 265 256 246 237 247 260 262 276 277 266 259 253 250 239 228 227 230 228 222 216 219 222 228 241 222 215 237 224 235 240 238 236 238 237
288 283 280 280 282 284 291 291 286 272 262 253 239 240 250 258 262 268 254 248 248 247 245 239 233 236 235 225 216 222 224 230 267 237 210 229 225 239 252 239 238 235 235
295 288 284 279 279 283 291 293 291 267 263 267 254 244 247 252 270 271 255 245 249 255 259 257 255 254 248 239 224 205 204 213 247 238 211 210 220 255 249 245 241 237 235
294 293 292 286 280 277 286 290 290 266 263 267 262 251 256 262 269 271 251 241 248 258 261 275 271 268 260 243 229 214 209 219 234 231 204 194 206 212 246 239 236 236 238
Height
1544 1544 1545 1547 1548 1548 1549 1550 1552 1552 1554 1555 1556 1557 1557 1558 1559 1559 1560 1560 1561 1561 1562 1562 1563 1563 1563 1564 1564 1564 1565 1565 1565 1566 1566 1566 1566 1567 1567 1567 1567 1567 1567
1542 1542 1543 1545 1546 1546 1547 1548 1550 1551 1552 1553 1554 1555 1556 1557 1558 1558 1559 1559 1560 1560 1561 1561 1562 1562 1562 1563 1563 1564 1564 1564 1565 1565 1565 1566 1566 1566 1566 1567 1567 1567 1567
1539 1540 1541 1542 1543 1544 1545 1546 1548 1549 1550 1551 1552 1553 1554 1555 1556 1557 1557 1558 1559 1559 1560 1560 1561 1561 1561 1562 1562 1563 1563 1564 1564 1564 1565 1565 1565 1566 1566 1566 1566 1567 1566
1536 1537 1538 1539 1541 1542 1543 1544 1545 1546 1548 1549 1550 1551 1552 1553 1554 1555 1556 1557 1557 1558 1559 1559 1560 1560 1560 1561 1561 1561 1562 1562 1563 1563 1564 1564 1564 1565 1565 1565 1565 1566 1566
1533 1534 1535 1536 1538 1539 1540 1541 1542 1544 1545 1546 1547 1549 1550 1551 1552 1553 1554 1555 1555 1556 1557 1557 1558 1558 1559 1559 1559 1560 1560 1561 1562 1562 1562 1563 1563 1563 1564 1564 1564 1564 1564
1530 1531 1532 1533 1534 1536 1537 1538 1539 1541 1542 1543 1545 1546 1547 1548 1549 1550 1551 1552 1553 1554 1555 1555 1556 1556 1557 1557 1558 1558 1559 1559 1560 1560 1561 1561 1561 1562 1562 1562 1563 1563 1563
1526 1527 1528 1529 1531 1532 1533 1535 1536 1537 1539 1540 1542 1543 1544 1545 1546 1547 1548 1549 1550 1551 1552 1553 1553 1554 1554 1555 1556 1556 1557 1557 1558 1558 1559 1559 1559 1560 1560 1560 1561 1561 1561
1522 1524 1524 1525 1527 1528 1530 1531 1532 1533 1535 1537 1539 1539 1541 1543 1543 1544 1545 1546 1547 1548 1549 1550 1550 1551 1552 1552 1553 1554 1555 1555 1555 1556 1556 1557 1557 1558 1558 1558 1559 1559 1559
1518 1519 1520 1521 1522 1524 1525 1526 1528 1529 1531 1533 1536 1537 1538 1537 1538 1540 1541 1542 1543 1545 1546 1547 1547 1548 1549 1550 1550 1551 1552 1552 1553 1553 1554 1554 1555 1555 1556 1556 1556 1556 1556
1514 1514 1516 1517 1518 1519 1520 1522 1524 1525 1527 1528 1531 1533 1535 1535 1536 1535 1537 1538 1540 1541 1542 1543 1544 1545 1545 1546 1547 1548 1549 1549 1550 1551 1551 1551 1552 1552 1553 1553 1553 1553 1554
1509 1510 1511 1512 1513 1514 1516 1517 1519 1521 1522 1524 1525 1528 1530 1531 1532 1532 1532 1534 1535 1537 1538 1539 1540 1541 1542 1543 1544 1545 1545 1546 1547 1548 1548 1549 1549 1549 1549 1550 1550 1550 1551
1505 1505 1506 1507 1508 1509 1511 1512 1514 1516 1518 1520 1521 1523 1525 1526 1527 1528 1528 1529 1530 1532 1533 1535 1536 1537 1538 1539 1540 1541 1542 1543 1543 1544 1545 1545 1546 1546 1546 1546 1547 1547 1547
1500 1500 1502 1503 1503 1504 1506 1508 1509 1511 1512 1514 1516 1518 1520 1522 1523 1524 1525 1526 1527 1528 1529 1530 1532 1533 1534 1535 1536 1537 1538 1538 1539 1540 1540 1541 1542 1542 1542 1543 1543 1543 1544
1496 1496 1497 1498 1498 1499 1501 1503 1504 1506 1507 1509 1511 1513 1515 1517 1518 1520 1521 1522 1522 1523 1524 1525 1526 1528 1529 1530 1531 1532 1533 1534 1535 1535 1536 1536 1537 1538 1538 1539 1539 1539 1540
1492 1492 1492 1493 1493 1494 1495 1497 1498 1500 1502 1503 1505 1508 1509 1511 1513 1514 1516 1517 1519 1518 1518 1519 1521 1522 1524 1525 1526 1527 1528 1529 1530 1530 1531 1532 1532 1533 1534 1534 1535 1535 1535
1488 1487 1487 1487 1488 1489 1490 1492 1493 1494 1496 1497 1500 1502 1503 1505 1507 1509 1510 1511 1513 1514 1513 1514 1516 1517 1519 1520 1521 1522 1523 1524 1524 1525 1526 1527 1527 1528 1529 1530 1530 1530 1531
1483 1482 1482 1482 1483 1484 1485 1486 1487 1489 1490 1492 1494 1495 1497 1499 1501 1502 1504 1505 1507 1508 1508 1509 1511 1512 1514 1514 1516 1517 1517 1518 1519 1520 1521 1521 1522 1523 1524 1525 1525 1526 1526
1479 1478 1477 1477 1478 1479 1479 1480 1481 1483 1484 1486 1487 1489 1490 1493 1495 1496 1497 1499 1501 1502 1503 1503 1504 1506 1507 1509 1510 1511 1512 1512 1513 1514 1515 1516 1517 1518 1518 1519 1520 1521 1521
1474 1473 1473 1473 1473 1473 1474 1475 1476 1477 1479 1480 1481 1483 1485 1487 1488 1490 1491 1493 1495 1496 1497 1499 1499 1500 1501 1503 1504 1505 1506 1507 1508 1508 1509 1510 1511 1512 1513 1513 1514 1515 1516
1469 1468 1468 1468 1469 1469 1469 1470 1471 1472 1473 1475 1476 1477 1479 1481 1482 1484 1485 1486 1488 1490 1491 1493 1494 1494 1496 1497 1498 1499 1499 1501 1501 1503 1503 1504 1505 1506 1507 1508 1509 1509 1510
1465 1465 1465 1464 1465 1465 1465 1466 1466 1467 1468 1469 1470 1471 1473 1475 1477 1479 1480 1480 1482 1484 1485 1486 1487 1489 1489 1490 1492 1493 1494 1494 1495 1496 1497 1498 1499 1500 1501 1502 1502 1503 1504
1462 1461 1461 1460 1460 1460 1461 1461 1462 1462 1462 1463 1464 1466 1468 1470 1471 1473 1474 1475 1477 1478 1478 1480 1481 1482 1483 1485 1486 1487 1488 1488 1488 1491 1491 1492 1493 1493 1494 1495 1496 1497 1498
1458 1457 1457 1456 1456 1455 1456 1456 1457 1457 1457 1458 1459 1461 1462 1464 1465 1467 1468 1470 1471 1472 1473 1474 1475 1476 1477 1479 1480 1481 1482 1482 1483 1484 1485 1485 1486 1487 1488 1489 1490 1491 1491
1454 1453 1452 1452 1451 1451 1452 1452 1453 1453 1453 1454 1455 1456 1457 1458 1460 1461 1462 1463 1464 1465 1467 1468 1469 1470 1472 1473 1474 1475 1476 1477 1478 1479 1480 1479 1480 1481 1482 1483 1483 1484 1485
1449 1449 1448 1448 1448 1448 1448 1448 1448 1448 1448 1449 1450 1451 1452 1453 1454 1456 1457 1457 1458 1460 1461 1462 1464 1465 1467 1468 1469 1470 1470 1471 1471 1472 1473 1474 1474 1474 1475 1476 1477 1478 1478
1446 1445 1444 1444 1444 1444 1444 1444 1444 1443 1443 1444 1445 1446 1447 1448 1450 1450 1451 1451 1452 1453 1454 1456 1457 1459 1461 1462 1463 1464 1465 1465 1465 1466 1467 1468 1468 1469 1469 1469 1471 1472 1472